User: anonymous   Login
Location: Unspecified
(0.0000°N, 0.0000°E)
Time: 21:29:57
(UTC+00:00)
Language:

BIRD - Orbit

View from above orbital plane
View from above orbital plane
View from above satellite
View from above satellite

Ground track
Ground track

The orbit data is extracted from the following two-line orbital elements,

1 26959U 01049C   18198.50310138  .00001267  00000-0  38801-4 0  9993
2 26959  97.8381 174.1151 0010101  66.8301 293.4004 15.35889866926970
Epoch (UTC): 17 July 2018 12:04:27
Eccentricity: 0.0010101
inclination: 97.8381°
perigee height: 451 km
apogee height: 465 km
right ascension of ascending node: 174.1151°
argument of perigee: 66.8301°
revolutions per day: 15.35889866
mean anomaly at epoch: 293.4004°
orbit number at epoch: 92697

The dashed part of the orbit path shows where the satellite is in the earth's shadow,  

DLR